Overview Statistics Trail Chart Weather Telemetry Raw packets
 

This is the latest recevied weather packets stored in our database for station/object OE6PWE-13. If no packets are shown the sender has not sent any weather packets the latest 10 day(s).

<< 22 23 24 25 26 27 28 >>
Time Temp. Humidity Pressure Rain* Wind** Luminosity Snow
1788178512 33.89° C 28% 1012 hPa 0 mm - - -
1788177611 33.89° C 27% 1012 hPa 0 mm - - -
1788176712 33.89° C 35% 1012 hPa 0 mm - - -
1788175812 32.78° C 35% 1013 hPa 0 mm - - -
1788174911 32.78° C 38% 1013 hPa 0 mm - - -
1788174011 32.78° C 37% 1013 hPa 0 mm - - -
1788173112 31.67° C 39% 1013 hPa 0 mm - - -
1788172211 31.11° C 43% 1013 hPa 0 mm - - -
1788171312 31.67° C 46% 1013 hPa 0 mm - - -
1788170411 30.56° C 47% 1014 hPa 0 mm - - -
1788169511 29.44° C 52% 1014 hPa 0 mm - - -
1788168612 30° C 51% 1014 hPa 0 mm - - -
1788167711 30° C 52% 1014 hPa 0 mm - - -
1788166812 28.89° C 54% 1014 hPa 0 mm - - -
1788165911 28.33° C 56% 1014 hPa 0 mm - - -
1788165012 27.22° C 61% 1014 hPa 0 mm - - -
1788164112 26.11° C 64% 1014 hPa 0 mm - - -
1788163211 23.89° C 69% 1015 hPa 0 mm - - -
1788162312 21.67° C 80% 1015 hPa 0 mm - - -
1788161411 22.22° C 82% 1015 hPa 0 mm - - -
1788160512 19.44° C 86% 1015 hPa 0 mm - - -
1788159612 17.22° C 99% 1015 hPa 0 mm - - -
1788158712 16.11° C 99% 1015 hPa 0 mm - - -
1788157812 15.56° C 99% 1015 hPa 0 mm - - -
1788156911 15° C 99% 1015 hPa 0 mm - - -

* Rain latest hour (hover to see other rain measurements)
** Current wind speed in m/s (hover to see current wind gust speed)